When you browse on this site, cookies collect data to enhance your experience and personalize the content and advertising you see.
Visit our Privacy Policy to learn more. By continuing to use the site, you agree to this use of cookies and data.
  • în România
  • Lista ţărilor
  • Pe 7 zile
  • Temperatura apei
  • Hartă satelitară
  • Meteo pe hartă
  • Widget-uri
  • user-avatar
    Intrare

    Meteo pe oră la Azzano San Paolo

    Astăzi, 22 Februarie, Vineri

    Timp Temperatura Precipitaţii Vânt Presiune Umiditate
    00:00 +9°C° 0 mm 1 m/s 748 mmHg 68%
    01:00 +8°C° 0 mm 1 m/s 748 mmHg 67%
    02:00 +8°C° 0 mm 1 m/s 748 mmHg 67%
    03:00 +8°C° 0 mm 1 m/s 747 mmHg 66%
    04:00 +8°C° 0 mm 1 m/s 747 mmHg 66%
    05:00 +7°C° 0 mm 2 m/s 747 mmHg 66%
    06:00 +7°C° 0 mm 2 m/s 747 mmHg 66%
    07:00 +6°C° 0 mm 2 m/s 747 mmHg 66%
    08:00 +8°C° 0 mm 2 m/s 747 mmHg 62%
    09:00 +11°C° 0 mm 1 m/s 746 mmHg 58%
    10:00 +13°C° 0 mm 1 m/s 746 mmHg 54%
    11:00 +14°C° 0 mm 1 m/s 746 mmHg 51%
    12:00 +16°C° 0 mm 1 m/s 746 mmHg 48%
    13:00 +17°C° 0 mm 2 m/s 746 mmHg 44%
    14:00 +18°C° 0 mm 1 m/s 746 mmHg 45%
    15:00 +18°C° 0 mm 1 m/s 746 mmHg 45%
    16:00 +18°C° 0 mm 1 m/s 746 mmHg 45%
    17:00 +16°C° 0 mm 1 m/s 747 mmHg 50%
    18:00 +14°C° 0 mm 1 m/s 747 mmHg 55%
    19:00 +12°C° 0 mm 1 m/s 748 mmHg 60%
    20:00 +12°C° 0 mm 1 m/s 748 mmHg 61%
    21:00 +11°C° 0 mm 1 m/s 749 mmHg 62%
    22:00 +11°C° 0 mm 1 m/s 749 mmHg 63%
    23:00 +9°C° 0 mm 2 m/s 750 mmHg 61%

    Mâine, 23 Februarie, Sâmbătă

    Timp Temperatura Precipitaţii Vânt Presiune Umiditate
    00:00 +9°C° 0 mm 2 m/s 750 mmHg 59%
    01:00 +8°C° 0 mm 2 m/s 750 mmHg 57%
    02:00 +8°C° 0 mm 2 m/s 750 mmHg 58%
    03:00 +8°C° 0 mm 2 m/s 749 mmHg 60%
    04:00 +7°C° 0 mm 3 m/s 749 mmHg 61%
    05:00 +7°C° 0 mm 2 m/s 750 mmHg 63%
    06:00 +6°C° 0 mm 2 m/s 750 mmHg 66%
    07:00 +5°C° 0 mm 2 m/s 750 mmHg 69%
    08:00 +6°C° 0 mm 2 m/s 750 mmHg 65%
    09:00 +5°C° 0 mm 3 m/s 750 mmHg 61%
    10:00 +7°C° 0 mm 3 m/s 750 mmHg 58%
    11:00 +7°C° 0 mm 3 m/s 750 mmHg 56%
    12:00 +8°C° 0 mm 3 m/s 750 mmHg 55%
    13:00 +8°C° 0 mm 3 m/s 750 mmHg 53%
    14:00 +8°C° 0 mm 3 m/s 750 mmHg 54%
    15:00 +8°C° 0 mm 3 m/s 750 mmHg 54%
    16:00 +8°C° 0 mm 3 m/s 749 mmHg 55%
    17:00 +7°C° 0 mm 2 m/s 750 mmHg 58%
    18:00 +5°C° 0 mm 2 m/s 750 mmHg 60%
    19:00 +4°C° 0 mm 2 m/s 751 mmHg 63%
    20:00 +5°C° 0 mm 1 m/s 751 mmHg 64%
    21:00 +4°C° 0 mm 1 m/s 751 mmHg 65%
    22:00 +4°C° 0 mm 1 m/s 752 mmHg 66%
    23:00 +4°C° 0 mm 1 m/s 752 mmHg 66%

    Poimâine, 24 Februarie, Duminică

    Timp Temperatura Precipitaţii Vânt Presiune Umiditate
    00:00 +4°C° 0 mm 1 m/s 752 mmHg 66%
    01:00 +3°C° 0 mm 1 m/s 752 mmHg 67%
    02:00 +3°C° 0 mm 1 m/s 752 mmHg 66%
    03:00 +3°C° 0 mm 1 m/s 752 mmHg 66%
    04:00 +1°C° 0 mm 0 m/s 752 mmHg 66%
    05:00 +1°C° 0 mm 0 m/s 752 mmHg 66%
    06:00 +1°C° 0 mm 0 m/s 752 mmHg 66%
    07:00 +1°C° 0 mm 0 m/s 752 mmHg 66%
    08:00 +2°C° 0 mm 0 m/s 752 mmHg 59%
    09:00 +4°C° 0 mm 1 m/s 752 mmHg 52%
    10:00 +6°C° 0 mm 1 m/s 752 mmHg 46%
    11:00 +7°C° 0 mm 1 m/s 752 mmHg 43%
    12:00 +8°C° 0 mm 1 m/s 752 mmHg 41%
    13:00 +9°C° 0 mm 1 m/s 751 mmHg 39%
    14:00 +9°C° 0 mm 1 m/s 751 mmHg 40%
    15:00 +9°C° 0 mm 1 m/s 751 mmHg 41%
    16:00 +9°C° 0 mm 1 m/s 751 mmHg 42%
    17:00 +8°C° 0 mm 1 m/s 751 mmHg 46%
    18:00 +7°C° 0 mm 1 m/s 751 mmHg 51%
    19:00 +5°C° 0 mm 1 m/s 752 mmHg 55%
    20:00 +5°C° 0 mm 1 m/s 752 mmHg 57%
    21:00 +5°C° 0 mm 1 m/s 753 mmHg 58%
    22:00 +5°C° 0 mm 1 m/s 753 mmHg 59%
    23:00 +5°C° 0 mm 1 m/s 753 mmHg 60%

    25 Februarie, Luni

    Timp Temperatura Precipitaţii Vânt Presiune Umiditate
    00:00 +5°C° 0 mm 1 m/s 754 mmHg 61%
    01:00 +5°C° 0 mm 1 m/s 754 mmHg 61%
    02:00 +5°C° 0 mm 1 m/s 753 mmHg 62%
    03:00 +5°C° 0 mm 1 m/s 753 mmHg 62%
    04:00 +5°C° 0 mm 1 m/s 753 mmHg 63%
    05:00 +5°C° 0 mm 1 m/s 753 mmHg 63%
    06:00 +4°C° 0 mm 1 m/s 753 mmHg 63%
    07:00 +3°C° 0 mm 0 m/s 753 mmHg 63%
    08:00 +5°C° 0 mm 0 m/s 753 mmHg 58%
    09:00 +7°C° 0 mm 0 m/s 753 mmHg 53%
    10:00 +9°C° 0 mm 0 m/s 753 mmHg 48%
    11:00 +10°C° 0 mm 0 m/s 752 mmHg 44%
    12:00 +12°C° 0 mm 1 m/s 752 mmHg 41%
    13:00 +13°C° 0 mm 1 m/s 752 mmHg 37%
    14:00 +14°C° 0 mm 1 m/s 751 mmHg 38%
    15:00 +14°C° 0 mm 1 m/s 751 mmHg 38%
    16:00 +14°C° 0 mm 1 m/s 751 mmHg 38%
    17:00 +12°C° 0 mm 1 m/s 751 mmHg 42%
    18:00 +11°C° 0 mm 1 m/s 751 mmHg 46%
    19:00 +9°C° 0 mm 1 m/s 752 mmHg 50%
    20:00 +9°C° 0 mm 1 m/s 752 mmHg 51%
    21:00 +9°C° 0 mm 1 m/s 752 mmHg 53%
    22:00 +9°C° 0 mm 1 m/s 752 mmHg 54%
    23:00 +9°C° 0 mm 1 m/s 752 mmHg 56%

    26 Februarie, Marţi

    Timp Temperatura Precipitaţii Vânt Presiune Umiditate
    00:00 +8°C° 0 mm 1 m/s 751 mmHg 57%
    01:00 +8°C° 0 mm 1 m/s 751 mmHg 59%
    02:00 +8°C° 0 mm 1 m/s 751 mmHg 59%
    03:00 +8°C° 0 mm 1 m/s 750 mmHg 60%
    04:00 +8°C° 0 mm 1 m/s 750 mmHg 61%
    05:00 +8°C° 0 mm 1 m/s 750 mmHg 60%
    06:00 +7°C° 0 mm 1 m/s 749 mmHg 60%
    07:00 +7°C° 0 mm 1 m/s 749 mmHg 60%
    08:00 +9°C° 0 mm 1 m/s 749 mmHg 55%
    09:00 +11°C° 0 mm 1 m/s 749 mmHg 51%
    10:00 +13°C° 0 mm 1 m/s 749 mmHg 46%
    11:00 +14°C° 0 mm 1 m/s 749 mmHg 45%
    12:00 +15°C° 0 mm 1 m/s 749 mmHg 43%
    13:00 +16°C° 0 mm 1 m/s 748 mmHg 41%
    14:00 +16°C° 0 mm 1 m/s 748 mmHg 42%
    15:00 +16°C° 0 mm 1 m/s 748 mmHg 43%
    16:00 +16°C° 0 mm 1 m/s 748 mmHg 44%
    17:00 +15°C° 0 mm 1 m/s 748 mmHg 49%
    18:00 +12°C° 0 mm 0 m/s 748 mmHg 55%
    19:00 +10°C° 0 mm 0 m/s 748 mmHg 60%
    20:00 +10°C° 0 mm 0 m/s 748 mmHg 60%
    21:00 +11°C° 0 mm 1 m/s 748 mmHg 60%
    22:00 +11°C° 0 mm 1 m/s 748 mmHg 61%
    23:00 +11°C° 0 mm 1 m/s 748 mmHg 60%

    27 Februarie, Miercuri

    Timp Temperatura Precipitaţii Vânt Presiune Umiditate
    00:00 +10°C° 0 mm 1 m/s 748 mmHg 59%
    01:00 +10°C° 0 mm 1 m/s 747 mmHg 58%
    02:00 +10°C° 0 mm 1 m/s 747 mmHg 57%
    03:00 +10°C° 0 mm 1 m/s 747 mmHg 57%
    04:00 +9°C° 0 mm 1 m/s 746 mmHg 56%
    05:00 +9°C° 0 mm 1 m/s 746 mmHg 55%
    06:00 +9°C° 0 mm 1 m/s 747 mmHg 54%
    07:00 +9°C° 0 mm 1 m/s 747 mmHg 53%
    08:00 +11°C° 0 mm 1 m/s 747 mmHg 49%
    09:00 +12°C° 0 mm 0 m/s 747 mmHg 46%
    10:00 +14°C° 0 mm 0 m/s 747 mmHg 42%
    11:00 +15°C° 0 mm 0 m/s 747 mmHg 41%
    12:00 +18°C° 0 mm 1 m/s 746 mmHg 40%
    13:00 +18°C° 0 mm 1 m/s 746 mmHg 38%
    14:00 +18°C° 0 mm 1 m/s 746 mmHg 39%
    15:00 +18°C° 0 mm 1 m/s 746 mmHg 40%
    16:00 +18°C° 0 mm 1 m/s 745 mmHg 41%
    17:00 +16°C° 0 mm 1 m/s 745 mmHg 46%
    18:00 +13°C° 0 mm 0 m/s 746 mmHg 51%
    19:00 +11°C° 0 mm 0 m/s 746 mmHg 57%
    20:00 +11°C° 0 mm 0 m/s 746 mmHg 57%
    21:00 +12°C° 0 mm 1 m/s 746 mmHg 58%
    22:00 +11°C° 0 mm 1 m/s 746 mmHg 59%
    23:00 +11°C° 0 mm 1 m/s 746 mmHg 60%
    Arată mai mult